EA3IR Weather Reports


time (UTC)temp
F
wind
direction
speed
knots
gust
knots
rain 1hr
in
rain 24hr
in
rain mn
in
humidity
%
barometer
mb
20260505051618 56 6 0.0 1.7 0.00 0.11 0.04 88 1010.9
20260505051119 55 0 0.0 0.0 0.00 0.11 0.04 88 1010.9
20260505050619 55 0 0.0 0.0 0.00 0.11 0.04 88 1010.9
20260505041618 55 6 0.9 1.7 0.00 0.11 0.04 89 1010.7
20260505041119 55 6 0.0 1.7 0.00 0.11 0.04 88 1010.7
20260505040119 55 6 0.9 0.9 0.00 0.11 0.04 88 1010.8
20260505035618 55 5 0.9 1.7 0.00 0.11 0.04 88 1010.7
20260505035120 56 6 0.0 1.7 0.00 0.11 0.04 88 1010.7
20260505034619 56 6 0.0 0.9 0.00 0.11 0.04 88 1010.8
20260505034119 56 6 0.0 0.9 0.00 0.11 0.04 88 1010.8
20260505033618 56 5 0.9 0.9 0.00 0.11 0.04 88 1010.9
20260505033119 56 6 0.9 0.9 0.00 0.11 0.04 88 1010.9
20260505032618 56 5 0.9 1.7 0.00 0.11 0.04 87 1010.9
20260505032119 57 2 0.9 2.6 0.00 0.11 0.04 87 1010.9
20260505031619 57 266 0.9 2.6 0.00 0.11 0.04 86 1011.0
20260505030619 57 266 0.9 1.7 0.00 0.11 0.04 86 1011.0
20260505025619 58 266 0.0 1.7 0.00 0.11 0.04 85 1011.0
20260505025119 58 266 0.0 1.7 0.00 0.11 0.04 85 1011.0
20260505024119 57 266 0.9 2.6 0.00 0.11 0.04 85 1010.9
20260505023618 57 266 0.9 1.7 0.00 0.11 0.04 85 1010.8
20260505023119 57 266 0.9 2.6 0.00 0.11 0.04 85 1010.8
20260505022620 57 266 0.9 0.9 0.00 0.11 0.04 84 1010.8
20260505022119 58 266 1.7 2.6 0.00 0.11 0.04 85 1010.8
20260505021618 57 244 1.7 2.6 0.00 0.11 0.04 84 1010.8
20260505020619 57 246 2.6 3.5 0.00 0.11 0.04 85 1010.8
20260505020119 57 237 2.6 3.5 0.00 0.11 0.04 85 1010.8
20260505015618 57 227 2.6 3.5 0.00 0.11 0.04 86 1010.7
20260505015119 56 218 2.6 3.5 0.00 0.11 0.04 87 1010.7
20260505014618 57 229 2.6 3.5 0.00 0.11 0.04 87 1010.7
20260505014119 57 224 3.5 3.5 0.00 0.11 0.04 87 1010.7
20260505013618 57 217 2.6 5.2 0.00 0.11 0.04 87 1010.7
20260505013119 57 206 1.7 4.3 0.00 0.11 0.04 87 1010.7
20260505012619 57 254 0.9 1.7 0.00 0.11 0.04 87 1010.7
20260505012119 57 252 1.7 1.7 0.00 0.11 0.04 87 1010.7
20260505011618 57 225 2.6 4.3 0.00 0.11 0.04 87 1010.8
20260505010119 57 220 2.6 5.2 0.00 0.11 0.04 88 1010.8
20260505005119 57 262 0.9 0.9 0.00 0.11 0.04 89 1010.8
20260505004119 57 254 1.7 3.5 0.00 0.11 0.04 89 1010.9
20260505003618 57 276 1.7 2.6 0.00 0.11 0.04 89 1010.9
20260505003120 57 275 1.7 3.5 0.00 0.11 0.04 89 1010.9
20260505002618 57 315 0.9 2.6 0.00 0.11 0.04 90 1010.9
20260505002118 57 316 0.9 2.6 0.00 0.11 0.04 90 1011.0
20260505001619 57 278 0.9 2.6 0.00 0.11 0.04 90 1011.0
20260505001118 57 279 1.7 2.6 0.00 0.11 0.04 90 1011.0
20260505000119 57 316 1.7 4.3 0.00 0.11 0.04 90 1011.0
20260504235619 57 312 1.7 4.3 0.00 0.11 0.04 90 1011.0
20260504234120 57 348 1.7 3.5 0.00 0.11 0.04 90 1010.9
20260504233618 57 326 0.9 4.3 0.00 0.11 0.04 90 1010.9
20260504233118 57 316 0.9 1.7 0.00 0.11 0.04 90 1010.8
20260504232618 57 316 0.9 2.6 0.00 0.11 0.04 90 1010.6
20260504231119 57 316 2.6 4.3 0.02 0.11 0.04 90 1010.6
20260504230619 57 319 2.6 4.3 0.03 0.11 0.04 90 1010.5
20260504225618 57 296 1.7 4.3 0.05 0.11 0.04 89 1010.5
20260504225119 57 302 1.7 4.3 0.05 0.11 0.04 89 1010.4
20260504224618 57 308 1.7 4.3 0.05 0.11 0.04 89 1010.3
20260504224118 57 306 1.7 3.5 0.06 0.11 0.04 89 1010.3
20260504223619 57 318 1.7 2.6 0.06 0.11 0.04 89 1010.3
20260504223119 58 9 1.7 2.6 0.06 0.11 0.04 88 1010.4
20260504222618 58 5 1.7 2.6 0.05 0.10 0.03 88 1010.3
20260504222119 58 345 2.6 5.2 0.05 0.10 0.03 87 1010.4
20260504220619 60 286 2.6 8.7 0.02 0.08 0.01 88 1010.9
20260504220122 60 305 1.7 5.2 0.02 0.07 0.00 89 1011.0
20260504215618 61 283 0.9 2.6 0.01 0.06 0.06 89 1010.9
20260504214619 62 301 0.9 2.6 0.01 0.06 0.06 90 1010.9
20260504214118 62 6 0.9 2.6 0.00 0.06 0.06 90 1010.9
20260504213618 62 11 0.9 2.6 0.00 0.06 0.06 90 1010.8
20260504213119 62 264 0.9 2.6 0.00 0.06 0.06 90 1010.8
20260504212619 62 263 0.9 2.6 0.00 0.06 0.06 90 1010.9
20260504212118 62 264 0.9 2.6 0.00 0.06 0.06 90 1011.1
20260504211619 62 264 0.9 3.5 0.00 0.06 0.06 90 1011.1
20260504210120 62 263 0.0 1.7 0.00 0.06 0.06 90 1010.9
20260504205619 62 264 0.0 0.9 0.00 0.06 0.06 90 1010.9
20260504205119 62 264 0.9 0.9 0.00 0.06 0.06 90 1010.8
20260504204119 62 264 0.0 1.7 0.00 0.06 0.06 90 1010.8
20260504203618 62 264 0.0 1.7 0.00 0.06 0.06 90 1010.7
20260504203118 62 264 0.0 0.9 0.00 0.06 0.06 90 1010.7
20260504202119 62 0 0.0 0.0 0.00 0.06 0.06 90 1010.5
20260504201618 62 264 0.9 2.6 0.00 0.06 0.06 90 1010.5
20260504201120 63 264 0.0 0.9 0.00 0.06 0.06 90 1010.5
20260504200619 63 264 0.0 0.9 0.00 0.06 0.06 90 1010.5
20260504200119 63 263 0.9 0.9 0.00 0.06 0.06 90 1010.5
20260504195618 62 264 0.9 1.7 0.00 0.06 0.06 90 1010.4
20260504195119 62 263 0.9 1.7 0.00 0.06 0.06 90 1010.4
20260504194618 62 263 0.9 1.7 0.00 0.06 0.06 89 1010.3
20260504193618 63 264 0.0 0.9 0.00 0.06 0.06 89 1010.1
20260504193119 63 264 0.0 0.9 0.00 0.06 0.06 90 1010.0
20260504192119 63 201 0.0 0.9 0.00 0.06 0.06 89 1009.8
20260504191619 63 201 0.0 0.9 0.00 0.06 0.06 89 1009.6
20260504191118 63 202 0.9 1.7 0.00 0.06 0.06 89 1009.4
20260504190618 63 202 0.9 2.6 0.00 0.06 0.06 89 1009.4
20260504185618 63 190 1.7 2.6 0.00 0.06 0.06 89 1009.3
20260504185118 63 162 0.9 2.6 0.00 0.06 0.06 89 1009.2
20260504184619 63 165 0.9 3.5 0.00 0.06 0.06 89 1009.2
20260504183618 64 188 0.9 2.6 0.00 0.06 0.06 89 1009.1
20260504183118 64 149 0.9 2.6 0.00 0.06 0.06 89 1009.1
20260504182618 64 198 0.9 2.6 0.00 0.06 0.06 89 1009.2
20260504182118 64 223 1.7 3.5 0.00 0.06 0.06 89 1009.2
20260504181619 64 183 1.7 3.5 0.00 0.06 0.06 89 1009.3
20260504181118 64 163 1.7 3.5 0.00 0.06 0.06 89 1009.2
20260504180618 64 168 1.7 5.2 0.00 0.06 0.06 89 1009.2
20260504180118 64 184 0.9 4.3 0.00 0.06 0.06 89 1009.3
20260504175618 64 192 0.9 2.6 0.00 0.06 0.06 89 1009.2
20260504175118 64 191 0.9 2.6 0.00 0.06 0.06 89 1009.2
20260504174618 65 191 0.0 0.9 0.00 0.06 0.06 89 1009.3
20260504174119 65 192 0.0 3.5 0.00 0.06 0.06 89 1009.2
20260504173618 65 303 0.9 1.7 0.01 0.06 0.06 89 1009.3
20260504173119 65 275 0.9 3.5 0.01 0.06 0.06 89 1009.3
20260504172618 65 289 0.9 1.7 0.01 0.06 0.06 89 1009.3
20260504172119 65 67 0.9 1.7 0.01 0.06 0.06 89 1009.3
20260504171118 65 159 0.9 3.5 0.02 0.06 0.06 89 1009.3
20260504170618 65 165 0.9 2.6 0.04 0.06 0.06 89 1009.4
20260504170119 65 157 0.9 2.6 0.06 0.06 0.06 89 1009.5
20260504160120 66 179 1.7 3.5 0.00 0.00 0.00 79 1009.9
20260504151119 68 100 1.7 3.5 0.00 0.00 0.00 74 1009.7
20260504150618 68 147 2.6 7.0 0.00 0.00 0.00 74 1009.8
20260504141119 71 173 2.6 7.0 0.00 0.00 0.00 69 1009.5
20260504130618 71 66 1.7 4.3 0.00 0.00 0.00 70 1009.9
20260504130119 71 109 1.7 6.1 0.00 0.00 0.00 69 1010.0
20260504120119 71 46 2.6 3.5 0.00 0.00 0.00 71 1010.7
20260504110119 73 67 4.3 7.0 0.00 0.00 0.00 65 1011.2
20260504100119 73 67 2.6 7.8 0.00 0.00 0.00 66 1011.2
20260504081518 72 133 2.6 7.8 0.00 0.00 0.00 63 1010.8